Vorticity
19 10 5 3 4 5 4 4 5 4 4 4 4 3 3 6 10 7 10 9 8 8 7 4 4 4 6 5 4 4 4 4 4 3 3 3 4 5 5 6 8 7 6
1 16 7 3 5 4 4 4 4 4 5 5 3 3 6 8 9 8 10 5 4 4 5 5 5 6 5 4 4 4 4 4 4 4 4 4 5 5 6 7 6 6 5
26 14 8 5 4 4 4 5 4 5 5 4 3 3 6 9 10 7 4 4 4 5 5 5 5 4 5 5 5 4 4 4 4 4 4 5 5 6 6 7 7 6 5
-4 13 10 7 5 4 4 5 5 4 6 4 4 3 7 10 6 4 4 4 4 5 5 4 4 4 5 4 4 4 4 4 5 5 5 6 8 7 7 6 6 5 5
6 15 14 8 5 4 4 4 5 5 6 5 4 4 5 8 6 4 5 5 4 4 4 3 5 5 4 4 4 4 5 5 5 6 7 7 8 6 6 5 5 5 5
2 -2 17 8 5 4 4 4 5 5 7 4 5 7 7 7 4 4 5 6 5 4 5 5 4 4 4 4 5 5 6 6 7 7 7 7 7 7 7 6 6 6 5
3 5 11 14 6 5 4 4 5 5 7 6 6 4 4 6 4 5 5 5 4 4 5 5 5 5 5 4 5 6 7 7 6 7 7 7 7 6 5 6 6 5 5
7 2 -4 18 8 5 5 4 4 5 6 6 5 4 4 4 5 4 5 5 5 4 4 4 4 5 5 5 5 5 6 6 6 6 6 6 6 6 6 5 5 5 7
9 6 2 9 11 5 5 5 4 5 7 6 5 4 6 7 6 5 5 5 5 4 4 4 4 4 5 5 6 6 6 7 6 6 6 6 6 5 5 6 7 8 6
17 5 4 6 13 6 4 4 4 5 6 6 6 4 3 4 7 8 5 5 5 4 4 4 4 4 4 5 6 7 7 8 7 7 7 7 7 7 7 8 6 5 5
12 11 0 8 11 8 5 4 4 4 6 6 6 3 1 1 6 4 7 5 5 4 4 4 4 4 4 5 6 6 7 10 10 9 9 9 8 7 5 5 4 4 3
3 4 -2 8 11 7 5 4 3 4 5 4 4 3 2 2 1 7 5 5 5 4 4 4 4 4 4 5 5 5 6 5 5 3 4 4 4 5 4 4 4 3 3
0 4 8 7 9 8 5 4 3 3 4 3 3 5 2 1 0 7 12 7 5 4 4 4 4 4 4 5 4 5 5 5 5 5 3 4 4 4 4 4 4 4 4
4 1 4 9 6 9 5 4 4 5 4 4 4 5 5 2 2 9 14 11 7 5 5 4 4 4 4 5 4 4 5 5 5 5 5 4 4 4 4 4 4 4 3
18 1 9 1 10 8 6 5 5 4 4 6 4 5 5 3 2 7 6 6 4 5 5 5 4 4 4 5 5 4 4 5 5 4 4 4 4 4 3 4 3 3 3
-39 18 16 2 4 10 7 5 5 4 4 5 4 4 5 5 3 9 7 4 2 3 4 5 5 5 4 4 5 5 5 4 4 4 4 3 3 3 3 3 3 3 3
7 8 5 8 7 9 7 5 6 5 4 6 5 5 4 6 3 5 3 9 8 6 6 6 6 5 4 4 4 5 5 4 4 3 3 3 3 3 3 3 3 3 4
13 -17 -23 28 -7 15 8 4 5 5 4 6 5 6 4 5 5 2 4 5 5 5 8 8 8 7 5 5 5 4 5 4 3 3 3 3 3 3 3 4 4 4 4
-10 11 -1 -5 -1 6 10 5 5 5 4 5 5 5 4 6 5 3 3 5 4 6 9 12 10 8 7 6 6 5 4 5 6 4 4 4 4 4 5 5 5 5 5
7 20 -43 -18 36 4 19 6 5 5 5 5 5 4 6 6 5 4 2 4 3 6 10 9 8 9 7 6 5 5 5 5 4 5 5 5 6 5 5 5 5 5 5
10 4 16 11 -20 55 23 4 7 5 4 3 4 5 5 6 5 4 3 4 4 6 12 9 8 9 7 7 6 5 5 5 6 5 5 6 6 5 5 5 5 5 5
18 2 -11 0 9 36 20 18 -2 6 3 3 5 4 5 5 6 5 4 4 4 6 7 8 6 4 5 5 6 7 6 6 5 6 5 5 4 5 5 5 6 6 6
35 28 7 34 12 20 74 -8 7 6 3 4 5 5 4 4 5 5 4 5 5 5 6 9 9 7 7 6 6 4 7 6 7 6 6 5 5 5 5 4 4 5 5
48 5 75 -11 -37 -38 16 19 3 8 4 5 5 5 5 5 4 6 5 3 4 5 5 7 9 9 7 7 7 7 7 7 7 10 6 6 7 6 6 6 5 4 6
26 26 3 -1 43 8 11 12 6 6 7 6 7 5 5 6 5 7 5 5 4 5 5 6 8 9 10 10 8 6 6 5 6 9 9 7 6 5 5 5 5 6 6
18 19 42 16 21 -35 -25 8 7 1 6 8 6 5 5 6 6 6 4 5 5 5 5 6 7 9 9 10 9 8 7 8 6 5 6 7 7 8 7 7 7 7 7
Height
3138 3138 3139 3141 3142 3144 3146 3147 3149 3150 3151 3151 3151 3152 3152 3152 3152 3152 3153 3153 3153 3154 3156 3157 3157 3158 3160 3160 3161 3162 3162 3163 3163 3164 3164 3165 3165 3166 3166 3166 3167 3166 3166
3137 3138 3139 3140 3142 3144 3145 3147 3148 3149 3151 3152 3152 3152 3153 3152 3152 3153 3155 3155 3156 3157 3157 3157 3158 3159 3160 3161 3162 3164 3164 3165 3165 3164 3165 3166 3166 3166 3167 3167 3167 3169 3169
3136 3137 3138 3139 3141 3143 3145 3146 3147 3149 3150 3151 3152 3152 3152 3153 3153 3154 3156 3157 3158 3158 3158 3159 3159 3160 3162 3162 3163 3163 3164 3165 3165 3165 3166 3166 3166 3167 3168 3169 3169 3169 3171
3136 3137 3137 3139 3140 3143 3145 3146 3147 3148 3149 3151 3152 3152 3152 3153 3154 3154 3155 3156 3158 3160 3160 3161 3161 3162 3163 3163 3164 3164 3166 3166 3166 3166 3167 3167 3168 3168 3170 3170 3171 3171 3172
3135 3136 3137 3138 3140 3142 3144 3146 3146 3147 3149 3151 3152 3153 3153 3154 3155 3157 3157 3157 3158 3161 3161 3161 3163 3164 3165 3165 3166 3166 3167 3167 3167 3168 3168 3168 3169 3169 3171 3172 3173 3173 3174
3134 3135 3136 3137 3139 3140 3142 3144 3146 3147 3148 3150 3151 3153 3154 3154 3155 3157 3159 3159 3160 3161 3163 3164 3164 3165 3166 3168 3169 3169 3169 3170 3170 3171 3171 3171 3172 3172 3174 3174 3174 3175 3175
3132 3133 3134 3135 3137 3139 3141 3143 3144 3146 3147 3149 3150 3152 3154 3155 3156 3157 3159 3160 3161 3163 3164 3166 3167 3168 3169 3170 3170 3171 3172 3172 3172 3172 3173 3174 3174 3174 3174 3175 3176 3177 3177
3129 3130 3132 3134 3134 3137 3139 3141 3142 3144 3146 3148 3149 3151 3153 3155 3157 3157 3159 3161 3162 3163 3165 3166 3168 3170 3170 3171 3170 3170 3171 3172 3173 3174 3174 3174 3175 3176 3177 3177 3177 3177 3178
3125 3126 3128 3130 3132 3134 3136 3138 3140 3142 3144 3146 3148 3150 3152 3154 3156 3158 3159 3161 3162 3164 3165 3166 3168 3169 3171 3171 3172 3171 3172 3173 3173 3174 3175 3176 3176 3177 3177 3178 3178 3179 3180
3119 3122 3124 3126 3128 3130 3133 3135 3137 3139 3142 3145 3147 3149 3150 3153 3155 3158 3159 3160 3161 3163 3165 3167 3168 3169 3170 3172 3173 3173 3173 3173 3174 3175 3176 3177 3177 3178 3179 3180 3181 3181 3182
3113 3116 3120 3121 3124 3126 3128 3131 3134 3136 3139 3142 3145 3147 3149 3151 3154 3156 3158 3160 3162 3163 3164 3166 3167 3170 3170 3172 3173 3173 3174 3174 3175 3176 3177 3178 3179 3179 3180 3181 3181 3182 3182
3108 3111 3115 3117 3119 3121 3123 3126 3129 3132 3135 3138 3142 3145 3148 3150 3152 3154 3156 3157 3159 3161 3163 3165 3166 3168 3170 3172 3173 3174 3175 3175 3176 3177 3178 3178 3179 3180 3181 3181 3182 3183 3183
3101 3106 3109 3112 3114 3116 3117 3122 3125 3129 3131 3135 3138 3142 3145 3147 3149 3151 3153 3156 3157 3159 3161 3164 3166 3167 3170 3173 3173 3174 3175 3176 3177 3178 3179 3179 3180 3180 3181 3182 3183 3183 3183
3085 3090 3099 3104 3107 3110 3113 3117 3121 3125 3129 3132 3135 3138 3142 3145 3147 3149 3151 3154 3156 3157 3160 3162 3164 3166 3168 3172 3173 3174 3175 3176 3177 3178 3179 3180 3180 3181 3181 3182 3182 3183 3183
3073 3082 3087 3094 3100 3103 3106 3111 3116 3119 3124 3128 3131 3134 3138 3141 3145 3146 3148 3150 3154 3156 3158 3160 3163 3165 3167 3170 3172 3174 3175 3176 3177 3178 3179 3180 3180 3180 3181 3181 3182 3182 3182
3066 3070 3078 3083 3090 3096 3099 3104 3111 3115 3119 3123 3127 3130 3134 3137 3141 3144 3145 3147 3150 3153 3156 3158 3161 3163 3165 3167 3171 3173 3174 3175 3176 3177 3178 3179 3180 3180 3180 3180 3180 3180 3180
3055 3059 3068 3075 3079 3085 3092 3097 3103 3110 3114 3118 3122 3126 3130 3133 3136 3140 3142 3145 3147 3150 3153 3155 3157 3160 3163 3164 3167 3170 3172 3172 3174 3176 3177 3177 3178 3178 3179 3179 3179 3178 3178
3038 3044 3048 3057 3067 3073 3082 3088 3094 3101 3108 3112 3116 3121 3124 3128 3132 3136 3138 3141 3143 3145 3148 3152 3154 3156 3160 3162 3164 3167 3169 3171 3172 3174 3175 3176 3176 3176 3176 3176 3176 3176 3176
3019 3029 3033 3038 3045 3058 3069 3078 3086 3093 3100 3106 3110 3114 3119 3122 3127 3131 3135 3138 3140 3142 3144 3147 3150 3153 3156 3159 3161 3163 3165 3168 3170 3171 3171 3172 3173 3173 3174 3174 3173 3173 3172
2998 3007 3015 3014 3016 3044 3057 3067 3075 3084 3090 3096 3102 3108 3113 3117 3121 3125 3129 3133 3135 3138 3140 3142 3146 3148 3151 3154 3156 3159 3160 3163 3165 3167 3168 3169 3170 3170 3170 3170 3170 3170 3169
2982 2985 3001 3011 3020 3018 3043 3051 3059 3067 3077 3085 3094 3101 3106 3111 3115 3120 3123 3128 3131 3134 3137 3139 3141 3144 3146 3149 3152 3154 3156 3158 3160 3162 3164 3165 3166 3167 3167 3167 3166 3166 3165
2964 2973 2983 2991 3003 3000 3026 3039 3049 3058 3069 3078 3088 3093 3098 3103 3109 3114 3118 3121 3127 3129 3130 3133 3136 3140 3142 3145 3148 3150 3152 3154 3155 3157 3159 3161 3161 3162 3163 3163 3163 3162 3162
2943 2951 2966 2982 2992 2997 3003 3020 3037 3053 3063 3067 3074 3081 3088 3097 3104 3109 3112 3115 3120 3125 3127 3130 3132 3136 3139 3142 3143 3145 3147 3150 3151 3153 3155 3155 3157 3158 3158 3158 3158 3158 3158
2931 2946 2954 2968 2978 2992 3002 3010 3027 3039 3042 3051 3062 3074 3083 3090 3096 3102 3106 3110 3114 3120 3122 3125 3128 3130 3132 3135 3138 3140 3143 3145 3147 3148 3150 3151 3152 3153 3153 3154 3154 3153 3153
2924 2933 2943 2950 2970 2985 2990 3002 3021 3030 3041 3046 3056 3067 3075 3083 3089 3096 3100 3104 3109 3113 3117 3119 3123 3125 3127 3129 3132 3134 3137 3140 3143 3144 3145 3146 3147 3148 3148 3149 3149 3148 3148
2914 2924 2934 2946 2956 2971 2978 2981 3010 3020 3030 3038 3047 3057 3066 3074 3082 3088 3093 3098 3104 3108 3112 3115 3117 3119 3121 3124 3126 3129 3132 3133 3137 3138 3139 3140 3141 3142 3142 3143 3143 3142 3141